User: anonymous   Login
Location: Unspecified
(0.0000°N, 0.0000°E)
Time: 23:50:06
(UTC+00:00)
Language:

STARLINK-35299 - Orbit

View from above orbital plane
View from above orbital plane
View from above satellite
View from above satellite

Ground track
Ground track

The orbit is defined by the following mean orbital elements,

1 66072U          26145.00421926 +.00000000 +00000-0 +53627-3 0 00002
2 66072  53.1577 250.9341 0000477 230.4400 129.6559 15.30217359    09
Epoch (UTC): 25 May 2026 00:06:04
Eccentricity: 0.0000477
inclination: 53.1577°
perigee height: 475 km
apogee height: 475 km
right ascension of ascending node: 250.9341°
argument of perigee: 230.4400°
revolutions per day: 15.30217359
mean anomaly at epoch: 129.6559°

The dashed part of the orbit path shows where the satellite is in the earth's shadow,  

DLR